{"data":{"norad_id":63831,"epoch":"2026-09-20T09:47:00.423456Z","epoch_age_seconds":157874,"freshness":"FRESH","line1":"1 63831U 25092AD  26263.40764379  .00012536  00000+0  46412-3 0  9994","line2":"2 63831  43.0020 152.9337 0000410 325.6905  34.3920 15.27592303 78448","mean_motion":15.27592303,"eccentricity":4.1e-5,"inclination_deg":43.002,"raan_deg":152.9337,"arg_perigee_deg":325.6905,"mean_anomaly_deg":34.392,"bstar":0.00046412,"rev_number":7844,"period_min":94.265989503352,"perigee_km":482.7309495594,"apogee_km":483.29356379845,"semimajor_km":6861.1492566789,"source":"CELESTRAK","updated_at":"2026-09-21T09:00:35.109744Z"}}